Home > Weather > Washington DC > Past weeks

Flag for USA Past Weather in Washington DC, USA — Yesterday and Last 2 Weeks

Now
71 °F

Passing clouds.


Feels Like: 73 °F
Forecast: 64 / 82 °F
Wind: 8 mph from South

Location: Reagan National Airport

Current Time: May 29, 2016 at 1:53:41 AM

Latest Report: May 29, 2016 at 12:52 AM


Visibility: 10 mi

Pressure: 30.15 "Hg

Humidity: 76%

Dew Point: 63 °F

Location of Washington DCLocation

Past Weather in Washington DC — Graph

°F

Washington DC Temperature Yesterday

Maximum temperature yesterday: 86 °F (at 1:52 PM)
Minimum temperature yesterday: 70 °F (at 5:52 AM)
Average temperature yesterday: 78 °F

High & Low Weather Summary for the Past Weeks

 TemperatureHumidityPressure
High88 °F (May 26, 2:52 PM)96% (May 22, 12:52 AM)30.28 "Hg (May 22, 12:52 AM)
Low45 °F (May 16, 4:52 AM)28% (May 16, 3:52 PM)29.69 "Hg (May 14, 5:52 PM)
Average64 °F67%30.05 "Hg
* Reported May 13 11:52 PM — May 28 11:52 PM, Washington DC, Weather by CustomWeather, © 2016

Note: Actual official high and low records may vary slightly from our data, if they occured in-between our weather recording intervals... More about our weather records

Advertising

Washington DC Weather History for the Previous 24 Hours

Scroll right to see more
 ConditionsComfort  
Time TempWeatherWind HumidityBarometerVisibility
11:52 PM
Sat, May 28
73 °FPassing clouds.7 mph71%30.15 "Hg10 mi
10:52 PM75 °FPassing clouds.7 mph64%30.14 "Hg10 mi
9:52 PM77 °FPassing clouds.8 mph64%30.14 "Hg10 mi
8:52 PM79 °FPartly sunny.8 mph62%30.13 "Hg10 mi
7:52 PM80 °FPartly sunny.9 mph62%30.11 "Hg10 mi
6:52 PM82 °FScattered clouds.10 mph63%30.10 "Hg10 mi
5:52 PM84 °FScattered clouds.13 mph57%30.09 "Hg10 mi
4:52 PM86 °FScattered clouds.12 mph51%30.10 "Hg10 mi
3:52 PM86 °FScattered clouds.13 mph53%30.12 "Hg10 mi
2:52 PM86 °FScattered clouds.13 mph57%30.13 "Hg10 mi
1:52 PM86 °FScattered clouds.13 mph57%30.14 "Hg10 mi
12:52 PM84 °FPassing clouds.10 mph63%30.15 "Hg10 mi
11:52 AM81 °FPassing clouds.9 mph65%30.16 "Hg10 mi
10:52 AM79 °FPassing clouds.9 mph67%30.16 "Hg10 mi
9:52 AM76 °FPassing clouds.12 mph69%30.16 "Hg10 mi
8:52 AM74 °FPassing clouds.9 mph71%30.16 "Hg10 mi
7:52 AM72 °FPassing clouds.8 mph73%30.14 "Hg10 mi
6:52 AM71 °FPassing clouds.9 mph76%30.13 "Hg10 mi
5:52 AM70 °FPassing clouds.8 mph81%30.13 "Hg10 mi
4:52 AM71 °FClear.7 mph81%30.11 "Hg10 mi
3:52 AM72 °FClear.10 mph81%30.09 "Hg10 mi
2:52 AM73 °FPassing clouds.10 mph81%30.09 "Hg10 mi
Weather by CustomWeather, © 2016

See weather overviewHow to use our weather pages